Time,TemperatureF,DewpointF,PressureIn,WindDirection,WindDirectionDegrees,WindSpeedMPH,WindSpeedGustMPH,Humidity,HourlyPrecipIn,Conditions,Clouds,dailyrainin,SolarRadiationWatts/m^2,SoftwareType,DateUTC
2013-02-05 00:01:00,22.3,19.0,29.81,South,170,14.0,24.0,87,0.00,,---,0.00,0.00,VWS V14.01,2013-02-05 06:01:00,
2013-02-05 00:06:00,22.4,19.1,29.80,SSW,193,16.0,16.0,87,0.00,,---,0.00,0.00,VWS V14.01,2013-02-05 06:06:00,
2013-02-05 00:11:00,22.4,19.1,29.80,South,190,15.0,18.0,87,0.00,,---,0.00,0.00,VWS V14.01,2013-02-05 06:11:00,
2013-02-05 00:16:00,22.5,19.0,29.79,SSW,199,15.0,19.0,86,0.00,,---,0.00,0.00,VWS V14.01,2013-02-05 06:16:00,
2013-02-05 00:21:00,22.6,19.3,29.79,SSW,199,14.0,17.0,87,0.00,,---,0.00,0.00,VWS V14.01,2013-02-05 06:21:00,
2013-02-05 00:26:00,22.7,19.1,29.79,SSW,200,18.0,22.0,86,0.00,,---,0.00,0.00,VWS V14.01,2013-02-05 06:26:00,
2013-02-05 00:31:00,22.8,19.2,29.79,SSW,208,15.0,22.0,86,0.00,,---,0.00,0.00,VWS V14.01,2013-02-05 06:31:00,
2013-02-05 00:36:00,22.9,19.4,29.79,SSW,202,18.0,21.0,86,0.00,,---,0.00,0.00,VWS V14.01,2013-02-05 06:36:00,
2013-02-05 00:41:00,23.0,19.5,29.79,SSW,197,12.0,21.0,86,0.00,,---,0.00,0.00,VWS V14.01,2013-02-05 06:41:00,
2013-02-05 00:46:00,22.9,19.4,29.78,SSW,198,16.0,21.0,86,0.00,,---,0.00,0.00,VWS V14.01,2013-02-05 06:46:00,
2013-02-05 00:51:00,22.8,19.2,29.78,SSW,195,12.0,16.0,86,0.00,,---,0.00,0.00,VWS V14.01,2013-02-05 06:51:00,
2013-02-05 00:56:00,22.9,19.4,29.78,SSW,203,11.0,16.0,86,0.00,,---,0.00,0.00,VWS V14.01,2013-02-05 06:56:00,
2013-02-05 01:01:00,23.0,19.7,29.78,SSW,207,12.0,17.0,87,0.00,,---,0.00,0.00,VWS V14.01,2013-02-05 07:01:00,
2013-02-05 01:06:00,23.2,19.6,29.78,SW,215,13.0,18.0,86,0.00,,---,0.00,0.00,VWS V14.01,2013-02-05 07:06:00,
2013-02-05 01:11:00,23.1,19.5,29.78,SSW,210,15.0,18.0,86,0.00,,---,0.00,0.00,VWS V14.01,2013-02-05 07:11:00,
2013-02-05 01:16:00,23.1,19.5,29.78,SW,215,13.0,18.0,86,0.00,,---,0.00,0.00,VWS V14.01,2013-02-05 07:16:00,
2013-02-05 01:21:00,23.4,19.8,29.77,SW,221,12.0,15.0,86,0.00,,---,0.00,0.00,VWS V14.01,2013-02-05 07:21:00,
2013-02-05 01:26:00,23.5,19.9,29.78,SW,221,12.0,17.0,86,0.00,,---,0.00,0.00,VWS V14.01,2013-02-05 07:26:00,
2013-02-05 01:31:00,23.8,20.2,29.78,SSW,210,16.0,18.0,86,0.00,,---,0.00,0.00,VWS V14.01,2013-02-05 07:31:00,
2013-02-05 01:36:00,23.9,20.3,29.77,SW,222,15.0,17.0,86,0.00,,---,0.00,0.00,VWS V14.01,2013-02-05 07:36:00,
2013-02-05 01:41:00,23.8,20.2,29.77,SW,223,14.0,18.0,86,0.00,,---,0.00,0.00,VWS V14.01,2013-02-05 07:41:00,
2013-02-05 01:46:00,23.7,20.1,29.77,SW,217,10.0,18.0,86,0.00,,---,0.00,0.00,VWS V14.01,2013-02-05 07:46:00,
2013-02-05 01:51:00,23.7,20.1,29.77,SW,219,11.0,13.0,86,0.00,,---,0.00,0.00,VWS V14.01,2013-02-05 07:51:00,
2013-02-05 01:56:00,23.8,20.2,29.77,SW,222,13.0,14.0,86,0.00,,---,0.00,0.00,VWS V14.01,2013-02-05 07:56:00,
2013-02-05 02:01:00,23.6,20.0,29.77,SW,217,10.0,15.0,86,0.00,,---,0.00,0.00,VWS V14.01,2013-02-05 08:01:00,
2013-02-05 02:06:00,23.6,20.0,29.77,SW,218,12.0,14.0,86,0.00,,---,0.00,0.00,VWS V14.01,2013-02-05 08:06:00,
2013-02-05 02:11:00,23.6,20.3,29.77,SW,215,12.0,14.0,87,0.00,,---,0.00,0.00,VWS V14.01,2013-02-05 08:11:00,
2013-02-05 02:16:00,23.6,20.0,29.77,SW,219,12.0,14.0,86,0.00,,---,0.00,0.00,VWS V14.01,2013-02-05 08:16:00,
2013-02-05 02:21:00,23.7,20.4,29.77,SW,214,11.0,16.0,87,0.00,,---,0.00,0.00,VWS V14.01,2013-02-05 08:21:00,
2013-02-05 02:26:00,23.6,20.3,29.77,SW,219,11.0,16.0,87,0.00,,---,0.00,0.00,VWS V14.01,2013-02-05 08:26:00,
2013-02-05 02:31:00,23.6,20.3,29.77,SW,219,11.0,16.0,87,0.00,,---,0.00,0.00,VWS V14.01,2013-02-05 08:31:00,
2013-02-05 02:36:00,23.6,20.3,29.77,SW,219,10.0,13.0,87,0.00,,---,0.00,0.00,VWS V14.01,2013-02-05 08:36:00,
2013-02-05 02:41:00,23.7,20.4,29.76,SW,215,10.0,16.0,87,0.00,,---,0.00,0.00,VWS V14.01,2013-02-05 08:41:00,
2013-02-05 02:46:00,23.7,20.4,29.76,SW,218,10.0,16.0,87,0.00,,---,0.00,0.00,VWS V14.01,2013-02-05 08:46:00,
2013-02-05 02:51:00,23.5,19.9,29.76,SW,227,11.0,12.0,86,0.00,,---,0.00,0.00,VWS V14.01,2013-02-05 08:51:00,
2013-02-05 02:56:00,23.4,19.8,29.76,SW,220,12.0,14.0,86,0.00,,---,0.00,0.00,VWS V14.01,2013-02-05 08:56:00,
2013-02-05 03:01:00,23.6,20.3,29.76,SW,225,10.0,15.0,87,0.00,,---,0.00,0.00,VWS V14.01,2013-02-05 09:01:00,
2013-02-05 03:06:00,23.4,20.1,29.76,SW,227,6.0,11.0,87,0.00,,---,0.00,0.00,VWS V14.01,2013-02-05 09:06:00,
2013-02-05 03:11:00,23.4,20.1,29.76,SW,227,9.0,11.0,87,0.00,,---,0.00,0.00,VWS V14.01,2013-02-05 09:11:00,
2013-02-05 03:16:00,23.2,19.9,29.75,SW,225,7.0,11.0,87,0.00,,---,0.00,0.00,VWS V14.01,2013-02-05 09:16:00,
2013-02-05 03:21:00,23.1,19.8,29.75,SW,226,6.0,10.0,87,0.00,,---,0.00,0.00,VWS V14.01,2013-02-05 09:21:00,
2013-02-05 03:26:00,22.9,19.6,29.75,SW,231,7.0,10.0,87,0.00,,---,0.00,0.00,VWS V14.01,2013-02-05 09:26:00,
2013-02-05 03:31:00,22.9,19.6,29.75,SW,222,7.0,12.0,87,0.00,,---,0.00,0.00,VWS V14.01,2013-02-05 09:31:00,
2013-02-05 03:36:00,23.0,20.0,29.75,SW,229,8.0,11.0,88,0.00,,---,0.00,0.00,VWS V14.01,2013-02-05 09:36:00,
2013-02-05 03:41:00,22.9,19.6,29.75,SW,229,5.0,11.0,87,0.00,,---,0.00,0.00,VWS V14.01,2013-02-05 09:41:00,
2013-02-05 03:46:00,22.7,19.4,29.74,SW,229,7.0,11.0,87,0.00,,---,0.00,0.00,VWS V14.01,2013-02-05 09:46:00,
2013-02-05 03:51:00,22.4,19.1,29.75,SW,229,4.0,7.0,87,0.00,,---,0.00,0.00,VWS V14.01,2013-02-05 09:51:00,
2013-02-05 03:56:00,22.1,18.8,29.75,SW,229,6.0,7.0,87,0.00,,---,0.00,0.00,VWS V14.01,2013-02-05 09:56:00,
2013-02-05 04:01:00,21.8,18.5,29.75,SW,227,4.0,7.0,87,0.00,,---,0.00,0.00,VWS V14.01,2013-02-05 10:01:00,
2013-02-05 04:06:00,21.8,18.8,29.74,SW,222,5.0,6.0,88,0.00,,---,0.00,0.00,VWS V14.01,2013-02-05 10:06:00,
2013-02-05 04:11:00,21.6,18.6,29.75,SW,218,4.0,6.0,88,0.00,,---,0.00,0.00,VWS V14.01,2013-02-05 10:11:00,
2013-02-05 04:16:00,21.6,18.6,29.74,SW,219,4.0,6.0,88,0.00,,---,0.00,0.00,VWS V14.01,2013-02-05 10:16:00,
2013-02-05 04:21:00,21.9,19.2,29.74,SW,221,5.0,5.0,89,0.00,,---,0.00,0.00,VWS V14.01,2013-02-05 10:21:00,
2013-02-05 04:26:00,22.5,19.8,29.74,SW,227,6.0,9.0,89,0.00,,---,0.00,0.00,VWS V14.01,2013-02-05 10:26:00,
2013-02-05 04:31:00,22.9,20.1,29.75,SW,229,4.0,9.0,89,0.00,,---,0.00,0.00,VWS V14.01,2013-02-05 10:31:00,
2013-02-05 04:36:00,23.1,20.4,29.74,SW,231,5.0,6.0,89,0.00,,---,0.00,0.00,VWS V14.01,2013-02-05 10:36:00,
2013-02-05 04:41:00,23.4,20.6,29.75,SW,231,5.0,6.0,89,0.00,,---,0.00,0.00,VWS V14.01,2013-02-05 10:41:00,
2013-02-05 04:46:00,23.6,20.8,29.75,SW,231,3.0,7.0,89,0.00,,---,0.00,0.00,VWS V14.01,2013-02-05 10:46:00,
2013-02-05 04:51:00,23.6,20.8,29.75,SW,230,5.0,5.0,89,0.00,,---,0.00,0.00,VWS V14.01,2013-02-05 10:51:00,
2013-02-05 04:56:00,23.7,20.9,29.76,WSW,248,5.0,7.0,89,0.00,,---,0.00,0.00,VWS V14.01,2013-02-05 10:56:00,
2013-02-05 05:01:00,23.9,21.1,29.76,WSW,250,7.0,9.0,89,0.00,,---,0.00,0.00,VWS V14.01,2013-02-05 11:01:00,
2013-02-05 05:06:00,24.4,21.9,29.76,WSW,252,11.0,12.0,90,0.00,,---,0.00,0.00,VWS V14.01,2013-02-05 11:06:00,
2013-02-05 05:11:00,25.0,22.5,29.77,WSW,253,11.0,14.0,90,0.00,,---,0.00,0.00,VWS V14.01,2013-02-05 11:11:00,
2013-02-05 05:16:00,25.6,23.1,29.76,WSW,258,12.0,14.0,90,0.00,,---,0.00,0.00,VWS V14.01,2013-02-05 11:16:00,
2013-02-05 05:21:00,26.2,23.7,29.76,WSW,255,13.0,13.0,90,0.00,,---,0.00,0.00,VWS V14.01,2013-02-05 11:21:00,
2013-02-05 05:26:00,26.9,24.4,29.76,WSW,254,12.0,13.0,90,0.00,,---,0.00,0.00,VWS V14.01,2013-02-05 11:26:00,
2013-02-05 05:31:00,27.3,24.8,29.76,West,259,11.0,13.0,90,0.00,,---,0.00,0.00,VWS V14.01,2013-02-05 11:31:00,
2013-02-05 05:36:00,27.8,25.2,29.76,WSW,256,10.0,13.0,90,0.00,,---,0.00,0.00,VWS V14.01,2013-02-05 11:36:00,
2013-02-05 05:41:00,28.1,25.8,29.76,West,275,11.0,15.0,91,0.00,,---,0.00,0.00,VWS V14.01,2013-02-05 11:41:00,
2013-02-05 05:46:00,28.5,26.2,29.77,West,268,13.0,16.0,91,0.00,,---,0.00,0.00,VWS V14.01,2013-02-05 11:46:00,
2013-02-05 05:51:00,28.5,26.2,29.76,West,259,12.0,14.0,91,0.00,,---,0.00,0.00,VWS V14.01,2013-02-05 11:51:00,
2013-02-05 05:56:00,28.4,26.1,29.76,WSW,253,12.0,15.0,91,0.00,,---,0.00,0.00,VWS V14.01,2013-02-05 11:56:00,
2013-02-05 06:01:00,28.2,26.2,29.76,West,261,12.0,15.0,92,0.00,,---,0.00,0.00,VWS V14.01,2013-02-05 12:01:00,
2013-02-05 06:06:00,28.1,26.1,29.76,West,265,13.0,17.0,92,0.00,,---,0.00,0.00,VWS V14.01,2013-02-05 12:06:00,
2013-02-05 06:11:00,28.1,26.1,29.76,West,261,10.0,17.0,92,0.00,,---,0.00,0.00,VWS V14.01,2013-02-05 12:11:00,
2013-02-05 06:16:00,28.1,26.1,29.76,West,267,10.0,17.0,92,0.00,,---,0.00,0.00,VWS V14.01,2013-02-05 12:16:00,
2013-02-05 06:21:00,28.2,26.4,29.76,West,275,9.0,13.0,93,0.00,,---,0.00,0.00,VWS V14.01,2013-02-05 12:21:00,
2013-02-05 06:26:00,28.3,26.5,29.76,West,269,13.0,17.0,93,0.00,,---,0.00,0.00,VWS V14.01,2013-02-05 12:26:00,
2013-02-05 06:31:00,28.4,26.6,29.76,West,277,13.0,17.0,93,0.00,,---,0.00,0.00,VWS V14.01,2013-02-05 12:31:00,
2013-02-05 06:36:00,28.5,26.7,29.76,West,279,13.0,15.0,93,0.00,,---,0.00,0.00,VWS V14.01,2013-02-05 12:36:00,
2013-02-05 06:41:00,28.6,26.8,29.76,West,273,14.0,16.0,93,0.00,,---,0.00,0.00,VWS V14.01,2013-02-05 12:41:00,
2013-02-05 06:46:00,28.6,26.8,29.76,West,276,13.0,16.0,93,0.00,,---,0.00,0.00,VWS V14.01,2013-02-05 12:46:00,
2013-02-05 06:51:00,28.7,26.9,29.77,West,271,8.0,13.0,93,0.00,,---,0.00,0.00,VWS V14.01,2013-02-05 12:51:00,
2013-02-05 06:56:00,28.8,27.0,29.77,West,273,10.0,15.0,93,0.00,,---,0.00,0.00,VWS V14.01,2013-02-05 12:56:00,
2013-02-05 07:01:00,29.0,27.5,29.78,WNW,284,14.0,16.0,94,0.00,,---,0.00,0.00,VWS V14.01,2013-02-05 13:01:00,
2013-02-05 07:06:00,29.1,27.3,29.78,West,281,12.0,15.0,93,0.00,,---,0.00,0.00,VWS V14.01,2013-02-05 13:06:00,
2013-02-05 07:11:00,29.2,27.4,29.78,WNW,284,14.0,16.0,93,0.00,,---,0.00,0.00,VWS V14.01,2013-02-05 13:11:00,
2013-02-05 07:16:00,29.3,27.5,29.79,WNW,286,13.0,17.0,93,0.00,,---,0.00,0.00,VWS V14.01,2013-02-05 13:16:00,
2013-02-05 07:21:00,29.4,27.6,29.80,WNW,297,13.0,17.0,93,0.00,,---,0.00,0.00,VWS V14.01,2013-02-05 13:21:00,
2013-02-05 07:26:00,29.4,27.6,29.80,WNW,291,14.0,17.0,93,0.00,,---,0.00,0.00,VWS V14.01,2013-02-05 13:26:00,
2013-02-05 07:31:00,29.4,27.6,29.80,WNW,284,11.0,17.0,93,0.00,,---,0.00,0.00,VWS V14.01,2013-02-05 13:31:00,
2013-02-05 07:36:00,29.4,27.6,29.80,WNW,290,11.0,15.0,93,0.00,,---,0.00,0.00,VWS V14.01,2013-02-05 13:36:00,
2013-02-05 07:41:00,29.4,27.6,29.81,WNW,288,13.0,15.0,93,0.00,,---,0.00,9.00,VWS V14.01,2013-02-05 13:41:00,
2013-02-05 07:46:00,29.4,27.6,29.81,WNW,284,9.0,15.0,93,0.00,,---,0.00,11.00,VWS V14.01,2013-02-05 13:46:00,
2013-02-05 07:51:00,29.4,27.6,29.81,WNW,287,11.0,13.0,93,0.00,,---,0.00,14.00,VWS V14.01,2013-02-05 13:51:00,
2013-02-05 07:56:00,29.6,27.8,29.82,WNW,289,12.0,14.0,93,0.00,,---,0.00,23.00,VWS V14.01,2013-02-05 13:56:00,
2013-02-05 08:01:00,29.7,27.9,29.82,WNW,293,10.0,14.0,93,0.00,,---,0.00,35.00,VWS V14.01,2013-02-05 14:01:00,
2013-02-05 08:06:00,29.7,27.9,29.82,WNW,295,10.0,13.0,93,0.00,,---,0.00,19.00,VWS V14.01,2013-02-05 14:06:00,
2013-02-05 08:11:00,29.8,28.0,29.82,WNW,287,12.0,13.0,93,0.00,,---,0.00,18.00,VWS V14.01,2013-02-05 14:11:00,
2013-02-05 08:16:00,29.9,28.1,29.82,WNW,300,12.0,13.0,93,0.00,,---,0.00,18.00,VWS V14.01,2013-02-05 14:16:00,
2013-02-05 08:21:00,30.0,28.2,29.83,NW,304,11.0,14.0,93,0.00,,---,0.00,53.00,VWS V14.01,2013-02-05 14:21:00,
2013-02-05 08:26:00,30.2,28.7,29.83,WNW,300,14.0,14.0,94,0.00,,---,0.00,107.00,VWS V14.01,2013-02-05 14:26:00,
2013-02-05 08:31:00,30.4,28.9,29.84,WNW,302,12.0,15.0,94,0.00,,---,0.00,72.00,VWS V14.01,2013-02-05 14:31:00,
2013-02-05 08:36:00,30.5,29.0,29.84,NW,304,13.0,16.0,94,0.00,,---,0.00,62.00,VWS V14.01,2013-02-05 14:36:00,
2013-02-05 08:41:00,30.6,28.8,29.84,WNW,299,12.0,16.0,93,0.00,,---,0.00,81.00,VWS V14.01,2013-02-05 14:41:00,
2013-02-05 08:46:00,30.7,28.9,29.85,WNW,298,11.0,16.0,93,0.00,,---,0.00,40.00,VWS V14.01,2013-02-05 14:46:00,
2013-02-05 08:51:00,30.7,28.9,29.85,NW,309,12.0,15.0,93,0.00,,---,0.00,69.00,VWS V14.01,2013-02-05 14:51:00,
2013-02-05 08:56:00,30.7,28.9,29.85,NW,308,11.0,17.0,93,0.00,,---,0.00,91.00,VWS V14.01,2013-02-05 14:56:00,
2013-02-05 09:01:00,30.8,29.0,29.86,WNW,300,12.0,17.0,93,0.00,,---,0.00,105.00,VWS V14.01,2013-02-05 15:01:00,
2013-02-05 09:06:00,30.9,29.1,29.86,WNW,300,12.0,16.0,93,0.00,,---,0.00,95.00,VWS V14.01,2013-02-05 15:06:00,
2013-02-05 09:11:00,30.9,29.1,29.86,WNW,297,12.0,16.0,93,0.00,,---,0.00,95.00,VWS V14.01,2013-02-05 15:11:00,
2013-02-05 09:16:00,30.9,29.1,29.86,WNW,301,12.0,16.0,93,0.00,,---,0.00,107.00,VWS V14.01,2013-02-05 15:16:00,
2013-02-05 09:21:00,31.0,29.2,29.86,WNW,300,12.0,14.0,93,0.00,,---,0.00,111.00,VWS V14.01,2013-02-05 15:21:00,
2013-02-05 09:26:00,31.0,29.2,29.86,WNW,296,12.0,15.0,93,0.00,,---,0.00,111.00,VWS V14.01,2013-02-05 15:26:00,
2013-02-05 09:31:00,31.1,29.0,29.87,NW,308,13.0,15.0,92,0.00,,---,0.00,116.00,VWS V14.01,2013-02-05 15:31:00,
2013-02-05 09:36:00,31.2,29.1,29.87,WNW,296,10.0,15.0,92,0.00,,---,0.00,132.00,VWS V14.01,2013-02-05 15:36:00,
2013-02-05 09:41:00,31.3,29.2,29.87,NW,307,15.0,17.0,92,0.00,,---,0.00,137.00,VWS V14.01,2013-02-05 15:41:00,
2013-02-05 09:46:00,31.4,29.1,29.88,NW,309,18.0,20.0,91,0.00,,---,0.00,148.00,VWS V14.01,2013-02-05 15:46:00,
2013-02-05 09:51:00,31.5,29.2,29.88,NW,305,16.0,18.0,91,0.00,,---,0.00,146.00,VWS V14.01,2013-02-05 15:51:00,
2013-02-05 09:56:00,31.5,29.2,29.88,WNW,293,10.0,18.0,91,0.00,,---,0.00,185.00,VWS V14.01,2013-02-05 15:56:00,
2013-02-05 10:01:00,31.5,29.2,29.88,WNW,297,12.0,18.0,91,0.00,,---,0.00,214.00,VWS V14.01,2013-02-05 16:01:00,
2013-02-05 10:06:00,31.6,29.0,29.89,NW,307,17.0,17.0,90,0.00,,---,0.00,246.00,VWS V14.01,2013-02-05 16:06:00,
2013-02-05 10:11:00,31.6,29.0,29.89,WNW,303,13.0,18.0,90,0.00,,---,0.00,265.00,VWS V14.01,2013-02-05 16:11:00,
2013-02-05 10:16:00,31.7,29.1,29.90,NW,307,15.0,18.0,90,0.00,,---,0.00,250.00,VWS V14.01,2013-02-05 16:16:00,
2013-02-05 10:21:00,31.7,29.1,29.90,NW,310,17.0,20.0,90,0.00,,---,0.00,251.00,VWS V14.01,2013-02-05 16:21:00,
2013-02-05 10:26:00,31.6,28.7,29.91,NW,306,22.0,23.0,89,0.00,,---,0.00,279.00,VWS V14.01,2013-02-05 16:26:00,
2013-02-05 10:31:00,31.5,28.6,29.91,NW,315,17.0,25.0,89,0.00,,---,0.00,276.00,VWS V14.01,2013-02-05 16:31:00,
2013-02-05 10:36:00,31.5,28.6,29.92,NW,317,17.0,20.0,89,0.00,,---,0.00,250.00,VWS V14.01,2013-02-05 16:36:00,
2013-02-05 10:41:00,31.3,28.4,29.91,NW,309,20.0,25.0,89,0.00,,---,0.00,262.00,VWS V14.01,2013-02-05 16:41:00,
2013-02-05 10:46:00,30.9,28.0,29.92,NW,325,21.0,26.0,89,0.00,,---,0.00,234.00,VWS V14.01,2013-02-05 16:46:00,
2013-02-05 10:51:00,30.6,27.8,29.93,NW,309,20.0,25.0,89,0.00,,---,0.00,241.00,VWS V14.01,2013-02-05 16:51:00,
2013-02-05 10:56:00,30.3,27.2,29.93,NW,313,21.0,25.0,88,0.00,,---,0.00,221.00,VWS V14.01,2013-02-05 16:56:00,
2013-02-05 11:01:00,30.0,26.9,29.93,NW,318,23.0,29.0,88,0.00,,---,0.00,241.00,VWS V14.01,2013-02-05 17:01:00,
2013-02-05 11:06:00,29.8,26.7,29.93,NW,309,20.0,25.0,88,0.00,,---,0.00,269.00,VWS V14.01,2013-02-05 17:06:00,
2013-02-05 11:11:00,29.8,26.7,29.94,NW,315,16.0,25.0,88,0.00,,---,0.00,267.00,VWS V14.01,2013-02-05 17:11:00,
2013-02-05 11:16:00,29.8,26.7,29.94,NW,312,16.0,25.0,88,0.00,,---,0.00,255.00,VWS V14.01,2013-02-05 17:16:00,
2013-02-05 11:21:00,29.9,26.8,29.94,NW,308,15.0,18.0,88,0.00,,---,0.00,274.00,VWS V14.01,2013-02-05 17:21:00,
2013-02-05 11:26:00,29.8,26.7,29.94,NW,307,18.0,25.0,88,0.00,,---,0.00,260.00,VWS V14.01,2013-02-05 17:26:00,
2013-02-05 11:32:00,29.6,26.2,29.95,WNW,303,21.0,25.0,87,0.00,,---,0.00,265.00,VWS V14.01,2013-02-05 17:32:00,
2013-02-05 11:37:00,29.1,25.7,29.94,WNW,303,21.0,27.0,87,0.00,,---,0.00,313.00,VWS V14.01,2013-02-05 17:37:00,
2013-02-05 11:42:00,28.7,25.0,29.94,NW,315,18.0,30.0,86,0.00,,---,0.00,294.00,VWS V14.01,2013-02-05 17:42:00,
2013-02-05 11:47:00,28.2,24.3,29.95,NW,315,25.0,30.0,85,0.00,,---,0.00,295.00,VWS V14.01,2013-02-05 17:47:00,
2013-02-05 11:52:00,27.5,23.3,29.95,NW,315,20.0,26.0,84,0.00,,---,0.00,279.00,VWS V14.01,2013-02-05 17:52:00,
2013-02-05 11:57:00,27.2,23.0,29.95,NW,315,17.0,26.0,84,0.00,,---,0.00,267.00,VWS V14.01,2013-02-05 17:57:00,
2013-02-05 12:02:00,26.8,22.6,29.95,NW,312,20.0,26.0,84,0.00,,---,0.00,295.00,VWS V14.01,2013-02-05 18:02:00,
2013-02-05 12:07:00,26.6,22.4,29.95,NW,315,19.0,22.0,84,0.00,,---,0.00,330.00,VWS V14.01,2013-02-05 18:07:00,
2013-02-05 12:12:00,26.4,22.2,29.95,NW,311,20.0,27.0,84,0.00,,---,0.00,322.00,VWS V14.01,2013-02-05 18:12:00,
2013-02-05 12:17:00,26.1,21.4,29.95,NW,315,24.0,27.0,82,0.00,,---,0.00,322.00,VWS V14.01,2013-02-05 18:17:00,
2013-02-05 12:22:00,25.6,20.9,29.95,NW,320,23.0,25.0,82,0.00,,---,0.00,325.00,VWS V14.01,2013-02-05 18:22:00,
2013-02-05 12:27:00,25.2,20.5,29.95,NW,306,24.0,25.0,82,0.00,,---,0.00,334.00,VWS V14.01,2013-02-05 18:27:00,
2013-02-05 12:32:00,24.9,19.9,29.96,NW,309,21.0,28.0,81,0.00,,---,0.00,378.00,VWS V14.01,2013-02-05 18:32:00,
2013-02-05 12:37:00,24.6,19.9,29.96,NW,322,20.0,27.0,82,0.00,,---,0.00,403.00,VWS V14.01,2013-02-05 18:37:00,
2013-02-05 12:42:00,24.5,20.1,29.96,NW,309,16.0,27.0,83,0.00,,---,0.00,350.00,VWS V14.01,2013-02-05 18:42:00,
2013-02-05 12:47:00,24.5,20.1,29.97,WNW,303,19.0,27.0,83,0.00,,---,0.00,434.00,VWS V14.01,2013-02-05 18:47:00,
2013-02-05 12:52:00,24.3,20.2,29.97,NW,312,23.0,25.0,84,0.00,,---,0.00,376.00,VWS V14.01,2013-02-05 18:52:00,
2013-02-05 12:57:00,24.0,19.6,29.97,NW,309,19.0,25.0,83,0.00,,---,0.00,327.00,VWS V14.01,2013-02-05 18:57:00,
2013-02-05 13:02:00,23.5,19.1,29.98,NW,309,19.0,26.0,83,0.00,,---,0.00,394.00,VWS V14.01,2013-02-05 19:02:00,
2013-02-05 13:07:00,23.1,18.4,29.98,NW,320,24.0,26.0,82,0.00,,---,0.00,492.00,VWS V14.01,2013-02-05 19:07:00,
2013-02-05 13:12:00,23.0,18.6,29.99,NW,313,19.0,26.0,83,0.00,,---,0.00,563.00,VWS V14.01,2013-02-05 19:12:00,
2013-02-05 13:17:00,22.7,18.3,29.99,NW,306,21.0,28.0,83,0.00,,---,0.00,455.00,VWS V14.01,2013-02-05 19:17:00,
2013-02-05 13:22:00,22.3,17.9,29.99,NW,324,19.0,23.0,83,0.00,,---,0.00,373.00,VWS V14.01,2013-02-05 19:22:00,
2013-02-05 13:27:00,22.0,17.6,29.99,NW,311,17.0,23.0,83,0.00,,---,0.00,642.00,VWS V14.01,2013-02-05 19:27:00,
2013-02-05 13:32:00,21.8,17.7,29.99,NW,313,17.0,23.0,84,0.00,,---,0.00,577.00,VWS V14.01,2013-02-05 19:32:00,
2013-02-05 13:37:00,21.6,17.5,30.00,NW,310,22.0,23.0,84,0.00,,---,0.00,555.00,VWS V14.01,2013-02-05 19:37:00,
2013-02-05 13:42:00,21.3,17.0,30.00,NW,318,19.0,27.0,83,0.00,,---,0.00,480.00,VWS V14.01,2013-02-05 19:42:00,
2013-02-05 13:47:00,21.3,17.0,30.00,NW,316,19.0,27.0,83,0.00,,---,0.00,432.00,VWS V14.01,2013-02-05 19:47:00,
2013-02-05 13:52:00,21.2,16.9,30.00,WNW,298,18.0,21.0,83,0.00,,---,0.00,415.00,VWS V14.01,2013-02-05 19:52:00,
2013-02-05 13:57:00,21.2,16.9,30.00,NW,307,17.0,22.0,83,0.00,,---,0.00,364.00,VWS V14.01,2013-02-05 19:57:00,
2013-02-05 14:02:00,20.9,16.6,30.01,NW,316,22.0,25.0,83,0.00,,---,0.00,345.00,VWS V14.01,2013-02-05 20:02:00,
2013-02-05 14:07:00,20.4,15.8,30.01,NW,311,21.0,25.0,82,0.00,,---,0.00,287.00,VWS V14.01,2013-02-05 20:07:00,
2013-02-05 14:12:00,20.1,15.5,30.01,NW,307,19.0,25.0,82,0.00,,---,0.00,257.00,VWS V14.01,2013-02-05 20:12:00,
2013-02-05 14:17:00,20.0,15.7,30.01,NW,322,17.0,25.0,83,0.00,,---,0.00,218.00,VWS V14.01,2013-02-05 20:17:00,
2013-02-05 14:22:00,19.8,15.5,30.02,NW,310,21.0,24.0,83,0.00,,---,0.00,200.00,VWS V14.01,2013-02-05 20:22:00,
2013-02-05 14:27:00,19.3,14.7,30.02,NW,315,16.0,24.0,82,0.00,,---,0.00,213.00,VWS V14.01,2013-02-05 20:27:00,
2013-02-05 14:32:00,18.9,14.3,30.02,NW,319,11.0,24.0,82,0.00,,---,0.00,197.00,VWS V14.01,2013-02-05 20:32:00,
2013-02-05 14:37:00,18.7,14.1,30.02,NW,313,16.0,17.0,82,0.00,,---,0.00,218.00,VWS V14.01,2013-02-05 20:37:00,
2013-02-05 14:42:00,18.7,14.1,30.02,NW,311,18.0,23.0,82,0.00,,---,0.00,202.00,VWS V14.01,2013-02-05 20:42:00,
2013-02-05 14:47:00,18.5,13.9,30.03,NW,317,17.0,25.0,82,0.00,,---,0.00,193.00,VWS V14.01,2013-02-05 20:47:00,
2013-02-05 14:52:00,18.3,13.7,30.03,NW,317,15.0,21.0,82,0.00,,---,0.00,246.00,VWS V14.01,2013-02-05 20:52:00,
2013-02-05 14:57:00,18.2,13.6,30.03,NW,315,13.0,21.0,82,0.00,,---,0.00,248.00,VWS V14.01,2013-02-05 20:57:00,
2013-02-05 15:02:00,18.2,13.4,30.04,NW,316,11.0,21.0,81,0.00,,---,0.00,232.00,VWS V14.01,2013-02-05 21:02:00,
2013-02-05 15:07:00,18.3,13.7,30.04,NW,317,10.0,17.0,82,0.00,,---,0.00,146.00,VWS V14.01,2013-02-05 21:07:00,
2013-02-05 15:12:00,18.0,13.2,30.05,NNW,337,16.0,23.0,81,0.00,,---,0.00,120.00,VWS V14.01,2013-02-05 21:12:00,
2013-02-05 15:17:00,17.7,12.6,30.05,NW,319,15.0,23.0,80,0.00,,---,0.00,148.00,VWS V14.01,2013-02-05 21:17:00,
2013-02-05 15:22:00,17.6,12.5,30.05,NW,321,14.0,18.0,80,0.00,,---,0.00,357.00,VWS V14.01,2013-02-05 21:22:00,
2013-02-05 15:27:00,17.6,12.5,30.05,NNW,330,14.0,18.0,80,0.00,,---,0.00,352.00,VWS V14.01,2013-02-05 21:27:00,
2013-02-05 15:32:00,17.6,12.5,30.05,NW,325,13.0,18.0,80,0.00,,---,0.00,325.00,VWS V14.01,2013-02-05 21:32:00,
2013-02-05 15:37:00,17.7,12.6,30.05,NW,311,15.0,18.0,80,0.00,,---,0.00,313.00,VWS V14.01,2013-02-05 21:37:00,
2013-02-05 15:42:00,17.8,12.7,30.05,NW,311,14.0,18.0,80,0.00,,---,0.00,301.00,VWS V14.01,2013-02-05 21:42:00,
2013-02-05 15:47:00,17.8,13.0,30.05,NW,304,13.0,18.0,81,0.00,,---,0.00,285.00,VWS V14.01,2013-02-05 21:47:00,
2013-02-05 15:52:00,17.8,12.7,30.06,NW,310,17.0,19.0,80,0.00,,---,0.00,267.00,VWS V14.01,2013-02-05 21:52:00,
2013-02-05 15:57:00,17.6,12.5,30.06,NW,323,14.0,19.0,80,0.00,,---,0.00,227.00,VWS V14.01,2013-02-05 21:57:00,
2013-02-05 16:02:00,17.6,12.5,30.07,NW,311,12.0,19.0,80,0.00,,---,0.00,230.00,VWS V14.01,2013-02-05 22:02:00,
2013-02-05 16:07:00,17.7,12.6,30.07,NW,319,11.0,14.0,80,0.00,,---,0.00,218.00,VWS V14.01,2013-02-05 22:07:00,
2013-02-05 16:12:00,17.6,12.5,30.07,NW,325,13.0,14.0,80,0.00,,---,0.00,144.00,VWS V14.01,2013-02-05 22:12:00,
2013-02-05 16:17:00,17.5,12.4,30.07,WNW,303,12.0,16.0,80,0.00,,---,0.00,113.00,VWS V14.01,2013-02-05 22:17:00,
2013-02-05 16:22:00,17.3,12.2,30.07,NW,305,12.0,14.0,80,0.00,,---,0.00,54.00,VWS V14.01,2013-02-05 22:22:00,
2013-02-05 16:27:00,17.1,12.0,30.07,WNW,300,10.0,17.0,80,0.00,,---,0.00,39.00,VWS V14.01,2013-02-05 22:27:00,
2013-02-05 16:32:00,16.7,11.6,30.07,WNW,298,8.0,17.0,80,0.00,,---,0.00,51.00,VWS V14.01,2013-02-05 22:32:00,
2013-02-05 16:37:00,16.5,11.4,30.07,WNW,298,9.0,13.0,80,0.00,,---,0.00,58.00,VWS V14.01,2013-02-05 22:37:00,
2013-02-05 16:42:00,16.2,11.1,30.08,WNW,302,10.0,13.0,80,0.00,,---,0.00,72.00,VWS V14.01,2013-02-05 22:42:00,
2013-02-05 16:47:00,16.0,11.2,30.08,WNW,299,10.0,13.0,81,0.00,,---,0.00,77.00,VWS V14.01,2013-02-05 22:47:00,
2013-02-05 16:52:00,15.9,11.1,30.08,WNW,300,10.0,13.0,81,0.00,,---,0.00,69.00,VWS V14.01,2013-02-05 22:52:00,
2013-02-05 16:57:00,16.0,10.9,30.08,NW,304,11.0,13.0,80,0.00,,---,0.00,76.00,VWS V14.01,2013-02-05 22:57:00,
2013-02-05 17:02:00,15.9,10.8,30.08,NW,304,3.0,13.0,80,0.00,,---,0.00,62.00,VWS V14.01,2013-02-05 23:02:00,
2013-02-05 17:07:00,15.8,10.7,30.08,WNW,303,6.0,9.0,80,0.00,,---,0.00,47.00,VWS V14.01,2013-02-05 23:07:00,
2013-02-05 17:12:00,15.6,10.8,30.09,WNW,303,4.0,9.0,81,0.00,,---,0.00,35.00,VWS V14.01,2013-02-05 23:12:00,
2013-02-05 17:17:00,15.3,10.5,30.09,WNW,300,5.0,10.0,81,0.00,,---,0.00,25.00,VWS V14.01,2013-02-05 23:17:00,
2013-02-05 17:22:00,15.1,10.3,30.09,WNW,301,6.0,7.0,81,0.00,,---,0.00,19.00,VWS V14.01,2013-02-05 23:22:00,
2013-02-05 17:27:00,14.8,10.0,30.09,WNW,297,6.0,10.0,81,0.00,,---,0.00,14.00,VWS V14.01,2013-02-05 23:27:00,
2013-02-05 17:32:00,14.4,9.9,30.09,WNW,294,4.0,10.0,82,0.00,,---,0.00,9.00,VWS V14.01,2013-02-05 23:32:00,
2013-02-05 17:37:00,14.1,9.6,30.09,WNW,302,9.0,10.0,82,0.00,,---,0.00,5.00,VWS V14.01,2013-02-05 23:37:00,
2013-02-05 17:42:00,13.8,9.6,30.08,NW,310,8.0,11.0,83,0.00,,---,0.00,0.00,VWS V14.01,2013-02-05 23:42:00,
2013-02-05 17:47:00,13.4,9.2,30.09,NW,310,6.0,11.0,83,0.00,,---,0.00,0.00,VWS V14.01,2013-02-05 23:47:00,
2013-02-05 17:52:00,13.1,8.9,30.08,NW,309,5.0,6.0,83,0.00,,---,0.00,0.00,VWS V14.01,2013-02-05 23:52:00,
2013-02-05 17:57:00,12.7,8.5,30.09,NW,309,6.0,6.0,83,0.00,,---,0.00,0.00,VWS V14.01,2013-02-05 23:57:00,
2013-02-05 18:02:00,12.4,8.2,30.09,NW,309,4.0,6.0,83,0.00,,---,0.00,0.00,VWS V14.01,2013-02-06 00:02:00,
2013-02-05 18:07:00,12.3,8.4,30.09,WNW,286,5.0,6.0,84,0.00,,---,0.00,0.00,VWS V14.01,2013-02-06 00:07:00,
2013-02-05 18:12:00,12.3,8.4,30.09,WNW,288,5.0,6.0,84,0.00,,---,0.00,0.00,VWS V14.01,2013-02-06 00:12:00,
2013-02-05 18:17:00,12.3,8.4,30.09,WNW,298,9.0,9.0,84,0.00,,---,0.00,0.00,VWS V14.01,2013-02-06 00:17:00,
2013-02-05 18:22:00,12.2,8.6,30.09,WNW,292,11.0,11.0,85,0.00,,---,0.00,0.00,VWS V14.01,2013-02-06 00:22:00,
2013-02-05 18:27:00,12.2,8.3,30.09,WNW,296,6.0,11.0,84,0.00,,---,0.00,0.00,VWS V14.01,2013-02-06 00:27:00,
2013-02-05 18:32:00,11.8,7.9,30.09,WNW,290,5.0,11.0,84,0.00,,---,0.00,0.00,VWS V14.01,2013-02-06 00:32:00,
2013-02-05 18:37:00,11.7,7.8,30.09,WNW,300,6.0,9.0,84,0.00,,---,0.00,0.00,VWS V14.01,2013-02-06 00:37:00,
2013-02-05 18:42:00,11.5,7.6,30.10,WNW,288,6.0,10.0,84,0.00,,---,0.00,0.00,VWS V14.01,2013-02-06 00:42:00,
2013-02-05 18:47:00,11.6,8.0,30.10,WNW,297,7.0,10.0,85,0.00,,---,0.00,0.00,VWS V14.01,2013-02-06 00:47:00,
2013-02-05 18:52:00,11.7,7.8,30.10,WNW,285,7.0,9.0,84,0.00,,---,0.00,0.00,VWS V14.01,2013-02-06 00:52:00,
2013-02-05 18:57:00,11.7,7.8,30.10,WNW,296,6.0,9.0,84,0.00,,---,0.00,0.00,VWS V14.01,2013-02-06 00:57:00,
2013-02-05 19:02:00,11.5,7.6,30.10,WNW,291,6.0,9.0,84,0.00,,---,0.00,0.00,VWS V14.01,2013-02-06 01:02:00,
2013-02-05 19:07:00,11.2,7.3,30.10,WNW,288,6.0,10.0,84,0.00,,---,0.00,0.00,VWS V14.01,2013-02-06 01:07:00,
2013-02-05 19:12:00,11.2,7.3,30.10,WNW,288,6.0,10.0,84,0.00,,---,0.00,0.00,VWS V14.01,2013-02-06 01:12:00,
2013-02-05 19:17:00,11.1,7.2,30.10,WNW,292,5.0,10.0,84,0.00,,---,0.00,0.00,VWS V14.01,2013-02-06 01:17:00,
2013-02-05 19:22:00,11.0,7.1,30.11,WNW,290,9.0,10.0,84,0.00,,---,0.00,0.00,VWS V14.01,2013-02-06 01:22:00,
2013-02-05 19:27:00,11.1,7.2,30.12,WNW,288,5.0,10.0,84,0.00,,---,0.00,0.00,VWS V14.01,2013-02-06 01:27:00,
2013-02-05 19:32:00,11.0,7.1,30.11,WNW,298,6.0,11.0,84,0.00,,---,0.00,0.00,VWS V14.01,2013-02-06 01:32:00,
2013-02-05 19:37:00,10.9,7.0,30.11,WNW,294,4.0,9.0,84,0.00,,---,0.00,0.00,VWS V14.01,2013-02-06 01:37:00,
2013-02-05 19:42:00,10.7,6.6,30.11,WNW,288,10.0,10.0,83,0.00,,---,0.00,0.00,VWS V14.01,2013-02-06 01:42:00,
2013-02-05 19:47:00,10.6,6.7,30.12,WNW,300,6.0,10.0,84,0.00,,---,0.00,0.00,VWS V14.01,2013-02-06 01:47:00,
2013-02-05 19:52:00,9.9,5.5,30.11,WNW,300,6.0,7.0,82,0.00,,---,0.00,0.00,VWS V14.01,2013-02-06 01:52:00,
2013-02-05 19:57:00,9.3,4.9,30.12,NW,309,6.0,10.0,82,0.00,,---,0.00,0.00,VWS V14.01,2013-02-06 01:57:00,
2013-02-05 20:02:00,8.8,4.7,30.12,NW,308,5.0,10.0,83,0.00,,---,0.00,0.00,VWS V14.01,2013-02-06 02:02:00,
2013-02-05 20:07:00,8.6,4.8,30.12,NW,304,5.0,6.0,84,0.00,,---,0.00,0.00,VWS V14.01,2013-02-06 02:07:00,
2013-02-05 20:12:00,8.7,4.9,30.13,NW,304,5.0,6.0,84,0.00,,---,0.00,0.00,VWS V14.01,2013-02-06 02:12:00,
2013-02-05 20:17:00,8.6,4.8,30.13,NW,304,3.0,6.0,84,0.00,,---,0.00,0.00,VWS V14.01,2013-02-06 02:17:00,
2013-02-05 20:22:00,8.2,4.4,30.13,NW,304,2.0,5.0,84,0.00,,---,0.00,0.00,VWS V14.01,2013-02-06 02:22:00,
2013-02-05 20:27:00,8.0,4.2,30.13,NW,304,2.0,5.0,84,0.00,,---,0.00,0.00,VWS V14.01,2013-02-06 02:27:00,
2013-02-05 20:32:00,7.7,3.6,30.13,NW,304,0.0,5.0,83,0.00,,---,0.00,0.00,VWS V14.01,2013-02-06 02:32:00,
2013-02-05 20:37:00,7.4,3.3,30.14,WNW,303,0.0,0.0,83,0.00,,---,0.00,0.00,VWS V14.01,2013-02-06 02:37:00,
2013-02-05 20:42:00,7.3,3.2,30.13,NW,304,0.0,0.0,83,0.00,,---,0.00,0.00,VWS V14.01,2013-02-06 02:42:00,
2013-02-05 20:47:00,7.2,3.4,30.13,NW,304,0.0,0.0,84,0.00,,---,0.00,0.00,VWS V14.01,2013-02-06 02:47:00,
2013-02-05 20:52:00,7.1,3.3,30.14,NW,304,0.0,0.0,84,0.00,,---,0.00,0.00,VWS V14.01,2013-02-06 02:52:00,
2013-02-05 20:57:00,6.9,3.1,30.14,NW,304,2.0,3.0,84,0.00,,---,0.00,0.00,VWS V14.01,2013-02-06 02:57:00,
2013-02-05 21:02:00,6.7,2.9,30.14,WNW,303,3.0,3.0,84,0.00,,---,0.00,0.00,VWS V14.01,2013-02-06 03:02:00,
2013-02-05 21:07:00,6.4,2.6,30.15,West,275,4.0,5.0,84,0.00,,---,0.00,0.00,VWS V14.01,2013-02-06 03:07:00,
2013-02-05 21:12:00,6.3,2.5,30.15,West,273,3.0,5.0,84,0.00,,---,0.00,0.00,VWS V14.01,2013-02-06 03:12:00,
2013-02-05 21:17:00,5.8,2.0,30.14,West,273,1.0,5.0,84,0.00,,---,0.00,0.00,VWS V14.01,2013-02-06 03:17:00,
2013-02-05 21:22:00,5.5,1.7,30.14,West,273,0.0,0.0,84,0.00,,---,0.00,0.00,VWS V14.01,2013-02-06 03:22:00,
2013-02-05 21:27:00,5.4,1.6,30.14,West,273,1.0,2.0,84,0.00,,---,0.00,0.00,VWS V14.01,2013-02-06 03:27:00,
2013-02-05 21:32:00,5.5,2.0,30.14,West,273,0.0,2.0,85,0.00,,---,0.00,0.00,VWS V14.01,2013-02-06 03:32:00,
2013-02-05 21:37:00,5.5,2.0,30.14,West,273,0.0,0.0,85,0.00,,---,0.00,0.00,VWS V14.01,2013-02-06 03:37:00,
2013-02-05 21:42:00,5.5,2.0,30.13,West,273,0.0,0.0,85,0.00,,---,0.00,0.00,VWS V14.01,2013-02-06 03:42:00,
2013-02-05 21:47:00,5.6,2.3,30.13,West,273,0.0,0.0,86,0.00,,---,0.00,0.00,VWS V14.01,2013-02-06 03:47:00,
2013-02-05 21:52:00,5.5,2.0,30.14,West,273,0.0,0.0,85,0.00,,---,0.00,0.00,VWS V14.01,2013-02-06 03:52:00,
2013-02-05 21:57:00,5.4,1.9,30.14,West,273,0.0,0.0,85,0.00,,---,0.00,0.00,VWS V14.01,2013-02-06 03:57:00,
2013-02-05 22:02:00,5.2,1.9,30.14,West,273,2.0,2.0,86,0.00,,---,0.00,0.00,VWS V14.01,2013-02-06 04:02:00,
2013-02-05 22:07:00,4.7,1.2,30.14,West,273,2.0,3.0,85,0.00,,---,0.00,0.00,VWS V14.01,2013-02-06 04:07:00,
2013-02-05 22:12:00,4.5,1.2,30.14,West,273,2.0,3.0,86,0.00,,---,0.00,0.00,VWS V14.01,2013-02-06 04:12:00,
2013-02-05 22:17:00,4.3,1.0,30.14,West,273,0.0,3.0,86,0.00,,---,0.00,0.00,VWS V14.01,2013-02-06 04:17:00,
2013-02-05 22:22:00,4.0,0.5,30.14,West,273,0.0,0.0,85,0.00,,---,0.00,0.00,VWS V14.01,2013-02-06 04:22:00,
2013-02-05 22:27:00,3.7,0.2,30.14,West,273,2.0,2.0,85,0.00,,---,0.00,0.00,VWS V14.01,2013-02-06 04:27:00,
2013-02-05 22:32:00,3.8,0.6,30.14,West,273,3.0,3.0,86,0.00,,---,0.00,0.00,VWS V14.01,2013-02-06 04:32:00,
2013-02-05 22:37:00,3.9,0.6,30.14,West,273,0.0,2.0,86,0.00,,---,0.00,0.00,VWS V14.01,2013-02-06 04:37:00,
2013-02-05 22:42:00,3.9,0.6,30.14,West,273,0.0,2.0,86,0.00,,---,0.00,0.00,VWS V14.01,2013-02-06 04:42:00,
2013-02-05 22:47:00,3.9,0.6,30.14,West,273,0.0,2.0,86,0.00,,---,0.00,0.00,VWS V14.01,2013-02-06 04:47:00,
2013-02-05 22:52:00,3.8,0.6,30.14,West,273,0.0,0.0,86,0.00,,---,0.00,0.00,VWS V14.01,2013-02-06 04:52:00,
2013-02-05 22:57:00,3.8,0.6,30.14,West,273,0.0,0.0,86,0.00,,---,0.00,0.00,VWS V14.01,2013-02-06 04:57:00,
2013-02-05 23:00:00,3.7,0.5,30.14,West,273,2.0,2.0,86,0.00,,---,0.00,0.00,VWS V14.01,2013-02-06 05:00:00,
2013-02-05 23:05:00,3.9,0.9,30.14,West,273,2.0,2.0,87,0.00,,---,0.00,0.00,VWS V14.01,2013-02-06 05:05:00,
2013-02-05 23:10:00,4.2,1.2,30.14,West,273,1.0,2.0,87,0.00,,---,0.00,0.00,VWS V14.01,2013-02-06 05:10:00,
2013-02-05 23:15:00,4.4,1.4,30.14,West,273,3.0,3.0,87,0.00,,---,0.00,0.00,VWS V14.01,2013-02-06 05:15:00,
2013-02-05 23:20:00,4.9,1.9,30.14,West,273,3.0,4.0,87,0.00,,---,0.00,0.00,VWS V14.01,2013-02-06 05:20:00,
2013-02-05 23:25:00,4.5,1.2,30.14,SW,215,3.0,5.0,86,0.00,,---,0.00,0.00,VWS V14.01,2013-02-06 05:25:00,
2013-02-05 23:30:00,4.1,0.9,30.14,SW,215,4.0,5.0,86,0.00,,---,0.00,0.00,VWS V14.01,2013-02-06 05:30:00,
2013-02-05 23:35:00,4.2,0.9,30.14,SW,215,2.0,3.0,86,0.00,,---,0.00,0.00,VWS V14.01,2013-02-06 05:35:00,
2013-02-05 23:40:00,4.2,0.9,30.15,SW,231,1.0,3.0,86,0.00,,---,0.00,0.00,VWS V14.01,2013-02-06 05:40:00,
2013-02-05 23:45:00,4.2,0.9,30.15,WSW,243,3.0,4.0,86,0.00,,---,0.00,0.00,VWS V14.01,2013-02-06 05:45:00,
2013-02-05 23:50:00,4.1,0.9,30.15,WSW,242,2.0,2.0,86,0.00,,---,0.00,0.00,VWS V14.01,2013-02-06 05:50:00,
2013-02-05 23:55:00,4.1,0.9,30.15,WSW,243,1.0,2.0,86,0.00,,---,0.00,0.00,VWS V14.01,2013-02-06 05:55:00,